This is the latest recevied weather packets stored in our database for station/object KQ4OSL. If no packets are shown the sender has not sent any weather packets the latest 10 day(s).
| Time | Temp. | Humidity | Pressure | Rain* | Wind** | Luminosity | Snow |
|---|---|---|---|---|---|---|---|
| 1778024485 | 22.22° C | 62% | 1015.6 hPa | 0 mm | - | 24 W/m² | - |
| 1778024183 | 22.22° C | 61% | 1015.5 hPa | 0 mm | - | 34 W/m² | - |
| 1778023880 | 22.22° C | 60% | 1015.2 hPa | 0 mm | - | 26 W/m² | - |
| 1778023577 | 22.22° C | 60% | 1015.4 hPa | 0 mm | - | 43 W/m² | - |
| 1778023275 | 22.78° C | 58% | 1015.5 hPa | 0 mm | - | 40 W/m² | - |
| 1778022971 | 22.78° C | 57% | 1015.4 hPa | 0 mm | - | 37 W/m² | - |
| 1778022670 | 22.78° C | 58% | 1015.3 hPa | 0 mm | - | 43 W/m² | - |
| 1778022368 | 22.78° C | 57% | 1015.5 hPa | 0 mm | - | 44 W/m² | - |
| 1778022063 | 22.78° C | 59% | 1015.5 hPa | 0 mm | - | 51 W/m² | - |
| 1778021760 | 23.33° C | 55% | 1015.5 hPa | 0 mm | - | 36 W/m² | - |
| 1778021457 | 23.33° C | 54% | 1015.4 hPa | 0 mm | - | 43 W/m² | - |
| 1778021154 | 23.33° C | 54% | 1015.4 hPa | 0 mm | - | 47 W/m² | - |
| 1778020851 | 23.33° C | 54% | 1015.4 hPa | 0 mm | - | 73 W/m² | - |
| 1778020548 | 23.33° C | 55% | 1015.4 hPa | 0 mm | - | 67 W/m² | - |
| 1778020244 | 23.33° C | 53% | 1015.3 hPa | 0 mm | - | 83 W/m² | - |
| 1778019940 | 23.89° C | 54% | 1015.2 hPa | 0 mm | - | 37 W/m² | - |
| 1778019637 | 23.89° C | 53% | 1015.1 hPa | 0 mm | - | 48 W/m² | - |
| 1778019334 | 23.89° C | 53% | 1015.1 hPa | 0 mm | - | 66 W/m² | - |
| 1778019030 | 23.89° C | 52% | 1015.1 hPa | 0 mm | - | 53 W/m² | - |
| 1778018728 | 23.89° C | 52% | 1015 hPa | 0 mm | - | 136 W/m² | - |
| 1778018425 | 23.89° C | 51% | 1015 hPa | 0 mm | - | 120 W/m² | - |
| 1778018124 | 23.89° C | 50% | 1015.1 hPa | 0 mm | - | 49 W/m² | - |
| 1778017821 | 23.33° C | 50% | 1015 hPa | 0 mm | - | 147 W/m² | - |
| 1778017519 | 23.89° C | 51% | 1015.2 hPa | 0 mm | - | 129 W/m² | - |
| 1778017215 | 23.89° C | 50% | 1015.2 hPa | 0 mm | - | 75 W/m² | - |
* Rain latest hour (hover to see other rain measurements)
** Current wind speed in m/s (hover to see current wind gust speed)